Rome, GA

6:57 AM EDT on July 21, 2017 (GMT -0400)
Russell

Weather History for KRMG - November, 2013

Change the Weather History Date:

Saturday, November 16, 2013

  Actual Average Record
Temperature  
Mean Temperature 57 °F 51 °F  
Max Temperature 64 °F 63 °F 78 °F (2001)
Min Temperature 49 °F 38 °F 26 °F (1997)
Degree Days  
Heating Degree Days 8 14  
Month to date heating degree days 232 193  
Since 1 July heating degree days 368 370  
Growing Degree Days 5 (Base 50)    
Moisture  
Dew Point 52 °F    
Average Humidity 89    
Maximum Humidity 100    
Minimum Humidity 78    
Precipitation  
Precipitation 0.00 in 0.17 in 0.96 in (2005)
Month to date precipitation 0.63 2.30  
Year to date precipitation 44.99  
Snow  
Snow 0.00 in - - ()
Month to date snowfall 0.0  
Since 1 July snowfall 0.0  
Since 1 September snowfall 0.0  
Snow Depth 0.00 in    
Sea Level Pressure  
Sea Level Pressure 30.16 in    
Wind  
Wind Speed 3 mph (ESE)    
Max Wind Speed 18 mph    
Max Gust Speed 30 mph    
Visibility 6 miles    
Events      
T = Trace of Precipitation, MM = Missing Value Source: NWS Daily Summary

Daily Weather History Graph

Daily Weather History Graph

Search for Another Location

Airport or City:

Trip Planner

Search our weather history database for the weather conditions in past years. The results will help you decide how hot, cold, wet, or windy it might be!

Date:

Astronomy

Nov. 16, 2013 Rise Set
Actual Time 7:15 AM EST 5:35 PM EST
Civil Twilight 6:48 AM EST 6:02 PM EST
Nautical Twilight 6:17 AM EST 6:32 PM EST
Astronomical Twilight 5:48 AM EST 7:02 PM EST
Moon 5:08 PM EST (11/16) 6:12 AM EST (11/16)
Length of Visible Light 11h 14m
Length of Day
10h 20m
Waxing Gibbous, 99% of the Moon is Illuminated
Nov 16
Waxing Gibbous
Nov 17
Full
Nov 25
Last Quarter
Dec 2
New
Dec 9
First Quarter

Hourly Weather History & Observations

Time (EST) Temp. Dew Point Humidity Pressure Visibility Wind Dir Wind Speed Gust Speed Precip Events Conditions
12:45 AM 48.2 °F 48.2 °F 100% 30.19 in 3.0 mi Calm Calm - N/A   Overcast
12:53 AM 48.9 °F 48.9 °F 100% 30.18 in 3.0 mi Calm Calm - N/A   Overcast
1:04 AM 48.2 °F 48.2 °F 100% 30.19 in 2.5 mi Calm Calm - N/A   Overcast
1:31 AM 48.2 °F 48.2 °F 100% 30.18 in 2.5 mi Calm Calm - N/A   Overcast
1:53 AM 48.9 °F 48.9 °F 100% 30.17 in 2.0 mi Calm Calm - N/A   Overcast
2:13 AM 48.2 °F 48.2 °F 100% 30.17 in 1.5 mi Calm Calm - N/A   Overcast
2:39 AM 48.2 °F 48.2 °F 100% 30.17 in 2.5 mi East 17.3 mph 25.3 mph N/A   Overcast
2:53 AM 48.9 °F 48.9 °F 100% 30.17 in 3.0 mi Calm Calm - N/A   Overcast
3:24 AM 50.0 °F 48.2 °F 94% 30.17 in 3.0 mi NNE 3.5 mph - N/A   Overcast
3:31 AM 48.2 °F 48.2 °F 100% 30.16 in 1.8 mi North 3.5 mph - N/A   Overcast
3:48 AM 48.2 °F 48.2 °F 100% 30.16 in 2.0 mi Calm Calm - N/A   Overcast
3:53 AM 48.9 °F 48.9 °F 100% 30.15 in 2.0 mi Calm Calm - N/A   Overcast
4:02 AM 48.2 °F 48.2 °F 100% 30.16 in 2.5 mi Calm Calm - N/A   Overcast
4:36 AM 48.2 °F 48.2 °F 100% 30.15 in 2.5 mi Calm Calm - N/A   Overcast
4:53 AM 48.9 °F 48.9 °F 100% 30.15 in 3.0 mi Calm Calm - N/A   Overcast
5:03 AM 48.2 °F 48.2 °F 100% 30.16 in 2.0 mi Calm Calm - N/A   Overcast
5:31 AM 50.0 °F 48.2 °F 94% 30.17 in 3.0 mi Calm Calm - N/A   Overcast
5:53 AM 50.0 °F 48.9 °F 96% 30.16 in 3.0 mi Calm Calm - N/A   Overcast
6:22 AM 50.0 °F 48.2 °F 94% 30.18 in 2.5 mi Calm Calm - N/A   Overcast
6:53 AM 50.0 °F 50.0 °F 100% 30.17 in 2.5 mi Calm Calm - N/A   Overcast
7:30 AM 50.0 °F 50.0 °F 100% 30.19 in 3.0 mi Calm Calm - N/A   Overcast
7:44 AM 50.0 °F 48.2 °F 94% 30.20 in 2.5 mi Calm Calm - N/A   Overcast
7:53 AM 50.0 °F 50.0 °F 100% 30.19 in 2.0 mi Calm Calm - N/A   Overcast
8:46 AM 51.8 °F 51.8 °F 100% 30.20 in 3.0 mi Calm Calm - N/A   Overcast
8:53 AM 52.0 °F 51.1 °F 97% 30.19 in 3.0 mi Calm Calm - N/A   Overcast
9:53 AM 54.0 °F 52.0 °F 93% 30.20 in 4.0 mi Calm Calm - N/A   Overcast
10:53 AM 55.9 °F 54.0 °F 93% 30.20 in 5.0 mi East 3.5 mph - N/A   Overcast
11:23 AM 57.2 °F 55.4 °F 94% 30.20 in 7.0 mi Calm Calm - N/A   Overcast
11:53 AM 59.0 °F 55.0 °F 87% 30.18 in 8.0 mi SE 3.5 mph - N/A   Overcast
12:53 PM 61.0 °F 55.0 °F 81% 30.15 in 10.0 mi SE 4.6 mph - N/A   Overcast
1:33 PM 62.6 °F 55.4 °F 77% 30.15 in 9.0 mi SE 6.9 mph - N/A   Overcast
1:53 PM 62.1 °F 55.9 °F 80% 30.13 in 10.0 mi SE 5.8 mph - N/A   Overcast
2:53 PM 63.0 °F 55.9 °F 78% 30.12 in 10.0 mi SE 8.1 mph - N/A   Overcast
3:17 PM 64.4 °F 55.4 °F 73% 30.12 in 10.0 mi SE 8.1 mph - N/A   Mostly Cloudy
3:31 PM 62.6 °F 55.4 °F 77% 30.11 in 10.0 mi ESE 8.1 mph - N/A   Overcast
3:53 PM 63.0 °F 55.9 °F 78% 30.11 in 10.0 mi SSE 10.4 mph - N/A   Overcast
4:53 PM 62.1 °F 55.9 °F 80% 30.11 in 9.0 mi ESE 6.9 mph - N/A   Overcast
5:41 PM 60.8 °F 55.4 °F 82% 30.12 in 9.0 mi SE 5.8 mph - N/A   Overcast
5:53 PM 61.0 °F 55.9 °F 83% 30.11 in 9.0 mi SE 4.6 mph - N/A   Overcast
6:53 PM 61.0 °F 55.0 °F 81% 30.12 in 10.0 mi Variable 3.5 mph - N/A   Overcast
7:53 PM 60.1 °F 55.0 °F 83% 30.14 in 9.0 mi ESE 3.5 mph - N/A   Overcast
8:13 PM 60.8 °F 55.4 °F 82% 30.15 in 9.0 mi Variable 4.6 mph - N/A   Overcast
8:53 PM 60.1 °F 55.0 °F 83% 30.14 in 9.0 mi SE 4.6 mph - N/A   Overcast
9:38 PM 60.8 °F 55.4 °F 82% 30.16 in 9.0 mi ESE 6.9 mph - N/A   Overcast
9:53 PM 60.1 °F 55.0 °F 83% 30.14 in 9.0 mi SE 3.5 mph - N/A   Overcast
10:53 PM 60.1 °F 55.9 °F 86% 30.14 in 8.0 mi SE 4.6 mph - N/A   Overcast
11:53 PM 60.1 °F 55.9 °F 86% 30.12 in 9.0 mi SE 6.9 mph - N/A   Overcast